Rocky Mount, NC

8:23 PM EDT on October 20, 2017 (GMT -0400)
Rocky Mount-Wilson Regional

Weather History for KRWI - September, 2014

Change the Weather History Date:

Monday, September 22, 2014

  Actual Average Record
Temperature  
Mean Temperature 72 °F -  
Max Temperature 79 °F 81 °F 94 °F (1970)
Min Temperature 64 °F 59 °F 44 °F (1956)
Cooling Degree Days 6    
Growing Degree Days 22 (Base 50)    
Moisture  
Dew Point 58 °F    
Average Humidity 64    
Maximum Humidity 90    
Minimum Humidity 39    
Precipitation  
Precipitation 0.03 in - - ()
Sea Level Pressure  
Sea Level Pressure 30.01 in    
Wind  
Wind Speed 6 mph (NW)    
Max Wind Speed 14 mph    
Max Gust Speed 21 mph    
Visibility 10 miles    
Events      
Averages and records for this station are not official NWS values.
T = Trace of Precipitation, MM = Missing Value Source: NWS Daily Summary

Daily Weather History Graph

Daily Weather History Graph

Search for Another Location

Airport or City:

Trip Planner

Search our weather history database for the weather conditions in past years. The results will help you decide how hot, cold, wet, or windy it might be!

Date:

Astronomy

Sep. 22, 2014 Rise Set
Actual Time 6:59 AM EDT 7:08 PM EDT
Civil Twilight 6:33 AM EDT 7:33 PM EDT
Nautical Twilight 6:04 AM EDT 8:03 PM EDT
Astronomical Twilight 5:33 AM EDT 8:33 PM EDT
Moon 5:28 AM EDT (9/22) 6:13 PM EDT (9/22)
Length of Visible Light 12h 59m
Length of Day
12h 08m
Waning Crescent, 2% of the Moon is Illuminated
Sep 22
Waning Crescent
Sep 24
New
Oct 1
First Quarter
Oct 8
Full
Oct 15
Last Quarter

Hourly Weather History & Observations

Time (EDT) Temp. Dew Point Humidity Pressure Visibility Wind Dir Wind Speed Gust Speed Precip Events Conditions
12:53 AM 73.9 °F 66.0 °F 76% 29.84 in 10.0 mi SW 8.1 mph - 0.00 in   Overcast
1:53 AM 71.1 °F 68.0 °F 90% 29.85 in 10.0 mi South 4.6 mph - 0.03 in   Overcast
2:53 AM 71.1 °F 66.9 °F 87% 29.86 in 10.0 mi WNW 3.5 mph - N/A   Scattered Clouds
4:53 AM 70.0 °F 66.9 °F 90% 29.89 in 10.0 mi WNW 4.6 mph - N/A   Overcast
5:53 AM 70.0 °F 61.0 °F 73% 29.92 in 10.0 mi NW 5.8 mph - N/A   Overcast
6:53 AM 68.0 °F 55.9 °F 65% 29.95 in 10.0 mi NW 6.9 mph - N/A   Mostly Cloudy
7:53 AM 68.0 °F 55.0 °F 63% 29.99 in 10.0 mi NW 5.8 mph - N/A   Mostly Cloudy
8:53 AM 68.0 °F 54.0 °F 61% 30.01 in 10.0 mi NNW 6.9 mph - N/A   Scattered Clouds
9:53 AM 72.0 °F 52.0 °F 49% 30.02 in 10.0 mi NNW 13.8 mph 20.7 mph N/A   Mostly Cloudy
10:53 AM 72.0 °F 54.0 °F 53% 30.04 in 10.0 mi NW 11.5 mph - N/A   Scattered Clouds
11:53 AM 75.0 °F 53.1 °F 46% 30.04 in 10.0 mi North 11.5 mph - N/A   Clear
12:53 PM 75.9 °F 53.1 °F 45% 30.04 in 10.0 mi Variable 6.9 mph - N/A   Clear
1:53 PM 78.1 °F 53.1 °F 42% 30.02 in 10.0 mi North 9.2 mph - N/A   Clear
2:53 PM 79.0 °F 52.0 °F 39% 30.02 in 10.0 mi North 4.6 mph - N/A   Clear
3:53 PM 79.0 °F 54.0 °F 42% 30.03 in 10.0 mi North 5.8 mph - N/A   Clear
4:53 PM 78.1 °F 54.0 °F 43% 30.03 in 10.0 mi NW 9.2 mph - N/A   Clear
5:53 PM 75.0 °F 55.0 °F 50% 30.04 in 10.0 mi NNW 5.8 mph - N/A   Clear
6:53 PM 71.1 °F 55.9 °F 59% 30.06 in 10.0 mi NNW 6.9 mph - N/A   Clear
7:53 PM 69.1 °F 57.0 °F 65% 30.09 in 10.0 mi NNW 4.6 mph - N/A   Clear
8:53 PM 64.9 °F 59.0 °F 81% 30.12 in 10.0 mi Calm Calm - N/A   Clear
9:53 PM 66.0 °F 59.0 °F 78% 30.13 in 10.0 mi Calm Calm - N/A   Clear
10:53 PM 64.9 °F 60.1 °F 84% 30.15 in 10.0 mi Calm Calm - N/A   Mostly Cloudy
11:53 PM 64.9 °F 59.0 °F 81% 30.14 in 10.0 mi Calm Calm - N/A   Clear